Погода в Шымкенте

Погода в Шымкенте : погода сейчас, прогноз погоды и архив. Всё, что Вы хотите узнать о погоде в Шымкенте!

Поиск расширенной информации на нашем сайте:

Другие новости

Новости СМИ2

Главная страница сайта

Новости сайта

03.07.2017

Напоминаем, что на нашем специализированном сайте Метеоцентр.Азия вы можете получить высокодетализированные автоматические прогнозы погоды по пунктам России, СНГ и мира в авиационном формате (включающие направление и скорость ветра, видимость, явления погоды, количество и форму облачности, нижнюю и верхнюю границу облачности).

Рекомендуем: Заливка фундамента вручную в Калуге.

Погода в Шымкенте - сегодня

Время (UTC), дата Ветер
(°,м/с) 
Видим.   Явления Облачность Т
(°С)
Тd
(°С)
f(%) Тe
(°С)
Pmin
(гПа)
dP
(гПа)
Po
(мм)
O2
(г/м3)
Тmin Tmax R s Состояние
почвы
12 17.10.17 тихо ()   20000 м    8/0 средняя, верхняя 
[Ac trans|Ci ing]
+25.2 +6.8 31 +25  1005  -0.7  704  258           
15 17.10.17 120 (ЮВ) н/о    8/0 верхняя 
[Ci ing]
+18.5 +1.3 32 +19  1004.3  -2.1  702  265    +27.2       
18 17.10.17 180 (Ю) н/о    10/3 600 м средняя, верхняя 
[Sc|Ac As|Ci ing]
+20.9 +3.6 32 +21  1001.8  -1.9  701  262    +27.2       
21 17.10.17 240 (ЮЗ) 5{23}  н/о  слаб. ливневой дождь  10/10 600 м кучево-дожд. 
[Cb cap]
+10.5 +9 90 +10  1016  11  709  273           
00 18.10.17 200 (Ю) 3{16}  н/о  слаб. ливневой дождь  10/10 600 м кучево-дожд. 
[Cb cap]
+7.4 +6.7 95 +7  1019.8  2.8  711  278           
03 18.10.17 210 (ЮЗ) 20000 м  {ливн. осадки}  10/10 600 м кучево-дожд. 
[Cb cap]
+7.1 +4.3 82 +7  1021.3  1.2  712  279      13     
06 18.10.17 230 (ЮЗ) 20000 м  {ливн. осадки}  10/10 600 м кучево-дожд. 
[Cb cap]
+8.2 +1.7 64 +8  1021.8  0.7  713  278  +6.8    13     
09 18.10.17 190 (Ю) 20000 м  {ливн. осадки}  10/10 600 м кучево-дожд. 
[Cb cap]
+9.6 +2.3 60 +9  1021  -0.4  712  277           
12 18.10.17 210 (ЮЗ) 4000 м  в посл. час ливневой дождь  9/9 600 м кучево-дожд. 
[Cb cap]
+6.3 +4.9 91 +5  1023.9  1.9  714  280           
15 18.10.17 240 (ЮЗ) н/о  слаб. ливневой дождь  10/10 600 м кучево-дожд. 
[Cb cap]
+8.8 +4 72 +8  1024.3  715  278    +10.4     
18 18.10.17 210 (ЮЗ) н/о  слаб. ливневой дождь  10/10 600 м кучево-дожд. 
[Cb cap]
+6.9 +5.1 88 +7  1026.5  1.6  716  280    +10.4     
21 18.10.17 230 (ЮЗ) 5-15{15}  н/о  ливневой дождь  10/10 600 м кучево-дожд. 
[Cb cap]
+6.3 +4.9 91 +4  1027.8  1.1  717  281           
00 19.10.17 200 (Ю) 2{17}  н/о  дымка{ливн. осадки}  8/8 600 м кучево-дожд. 
[Cb cap]
+6.2 +5.1 93 +6  1028.4  0.5  717  282           
03 19.10.17 тихо ()   4000 м  дымка  8/8 600 м кучево-дожд. 
[Cb cap]
+6.7 +5.3 91 +7  1028.4  0.1  717  281      17     
06 19.10.17 290 (З) 20000 м    9/9 600 м кучево-дожд. 
[Cb cap]
+9.3 +5.3 76 +10  1029.7  1.9  718  279  +5.7    17     
09 19.10.17 230 (ЮЗ) 20000 м    8/6 600 м кучево-дожд., средняя 
[Cb cap|Ac trans]
+14.3 +3.2 47 +14  1027.8  -0.6  718  274           
12 19.10.17 230 (ЮЗ) 20000 м    6/3 600 м средняя, верхняя 
[Sc|Ac trans|Ci fib]
+11.8 +6.1 68 +12  1029.9  1.3  719  277           
15 19.10.17 130 (ЮВ) н/о  дымка  ясно 
+8 +5.6 85 +9  1031.5  0.7  719  281    +14.4       
18 19.10.17 090 (В) н/о  дымка  ясно 
+6.1 +4.7 91 +7  1031.5  -0.6  719  283    +14.4       
21 19.10.17 060 (СВ) н/о  дымка  ясно 
+5.3 +3.4 88 +6  1030.6  -1  718  283           
00 20.10.17 120 (ЮВ) н/о    ясно 
+6.3 +1.3 70 +6  1028.8  -1.4  717  282           
03 20.10.17 100 (В) 20000 м    ясно 
+8.8 +0.2 55 +9  1027.1  -1  716  280           
06 20.10.17 340 (С) 20000 м    3/0 верхняя 
[Ci fib]
+15.4 +4.8 49 +16  1023.9  -1.4  715  272  +4.8         
09 20.10.17 340 (С) 20000 м    ясно 
+16.7 +4.5 44 +18  1020.4  -3  713  270           
12 20.10.17 330 (СЗ) 20000 м    ясно 
+14.8 +7.3 61 +16  1019.5  -1.2  712  271           
Время (UTC), дата Ветер
(°,м/с) 
Видим.   Явления Облачность Т
(°С)
Тd
(°С)
f(%) Тe
(°С)
Pmin
(гПа)
dP
(гПа)
Po
(мм)
O2
(г/м3)
Тmin Tmax R s Состояние
почвы

Для получения пояснительной информации подведите курсор к названию столбца.

ПОГОДА в Шымкенте - архив

Всё, что Вы хотите узнать о погоде в Шымкенте - удобно и подробно!

Выберите нужную дату (начиная с 1 января 2015* года) и нажмите кнопку "Найти".
Будут отображены архивные сводки погоды по пункту Шымкент, начиная с указанной даты.


Отображать данные в формате CSV (для использования в таблицах Excel)


Внимание! Наш архив погоды предназначен исключительно для личного некоммерческого использования в познавательных целях. Если Вам необходимы официальные справки о состоянии погоды (для производственных, юридических, коммерческих и т.п. целей), обращайтесь в органы Росгидромета.

*Примечание: данная дата относится к архиву по метеостанциям СССР (Россия, СНГ, Балтия).
Архив по метеостанциям Зарубежной Европы и Азии (кроме Китая) хранится 10 дней, по другим регионам земного шара (Китай, Африка, Америка, Австралия, Океания) - 1 день.

Шымкент - район местоположения метеостанции


Название, широта, долгота, высота метеостанции:
Шымкент (город) 42.3°ш. 69.7°д. 604 м над ур. моря [Казахстан]

Дополнительная информация

В oтличие oт бoльшинства пoгoдных сайтoв мы публикуем пoдрoбную метеoинфoрмацию в детальнoм прoфессиoнальнoм фoрмате.

Характеристики температуры и влажнoсти вoздуха измеряются на высoте 2 м в тени вдали oт зданий и деревьев.
Скoрoсть ветра измеряется на высoте 10 м (на урoвне рoста челoвека скoрoсть ветра ниже в 1.5-2 раза). Если метеoстанция нахoдится в гoрoде или в лесу, тo скoрoсть ветра занижена на 2-4 м/с пo сравнению с oткрытым местoм. Скoрoсть ветра над акватoриями крупных рек и oзёр, а также на вершинах хoлмoв на 2-5 м/с выше, чем в oбычных услoвиях.
Атмoсфернoе давление в разных тoчках местнoсти мoжет значительнo oтличаться oт давления на метеoстанции, в зависимoсти oт услoвий рельефа (при пoдъёме на 10 м давление пoнижается примернo на 1 мм рт.ст.).